NOAA 16 DEB, 41297

Orbit data source: Space-Track

NOAA 16 DEB, 41297 is space debris in SSO originally from a launch on Thu, 21 Sep 2000 UTC launched from the Air Force Western Test Range (AFWTR). Debris objects in space refer to the collection of defunct objects orbiting the Earth. Examples of debris include non-operational satellites, rocket bodies, and fragments generated from explosions, collisions, or faulty payload assembly.

Loading next visibility...
Identifier
41297, 2000-055GZ
Orbit
SSO
Country
Flag of USUS
Related business
Manufacturer
Unknown
Mission
Spacecraft
Bus & Motor
Unknown
Mass
Unknown
Launch date (UTC)
2000-09-21 (26 years ago)
Launch vehicle
Unknown
Launch site
Air Force Western Test Range (AFWTR)
Object type
Payload
Rocket body
Debris
Shape & HBR
Unknown shape, 0.1 m
Radar Cross Section
Medium (>0.1 m² and <1 m²)

Expand to show TLE details & history
Last TLE update: 3 days ago

TLE from 3 days ago
0 NOAA 16 DEB
1 41297U 00055GZ  26252.03951114  .00002832  00000-0  14173-2 0  9997
2 41297  98.9556 317.1225 0063363 173.5314 186.6692 14.16473829547899
Epoch: 2026-09-09T00:56Z
TLE epoch observation values (Epoch: 2026-09-09T00:56:53.762Z)
Latitude
-0.00003°
Longitude
-45.1988°
Altitude
885.627 km
Speed
7.386 km/s
True Right ascension
21h 08m 29s
True Declination
0° 00' 00"
Sunlit
Object was in full shadow at epoch
Visualization orbit readout
Latitude
Unknown
Longitude
Unknown
Altitude
Unknown
Speed
Unknown
Apparent Right ascension
Unknown
Apparent Declination
Unknown
Sunlit
N/A
Visualization observer readout
Local Sidereal Time
12:58:59
Azimuth
Unknown
Elevation
Unknown
Doppler factor
Unknown
Orbital elements
Apogee altitude
880.179 km
Perigee altitude
788.777 km
Semi-major axis
7,212.615 km
Eccentricity
0.00634
Inclination
98.9556°
RAAN
317.1225°
Arg. of periapsis
173.5314°
True anomaly
186.58553°
Mean anomaly
186.6692°
Eccentric anomaly
186.6273°
Mean motion
3.54327 °/min
Orbital period
101.6 mins
BSTAR
0.0014173
Loading maneuver chart data...
Computing Atmospheric mass density...
Loading historical data...
Loading historical data...
Loading historical data...
Loading historical data...
Loading historical data...
Loading historical data...
Loading historical data...

Documentation

Showing up to 5 results
|